www.pogodaiklimat.ru

Погода и климат >> Архив погоды >> Россия >> Свердловская область >> Карпинск


ПОГОДА в Карпинске

  • Прогноз погоды в Карпинске
  • Монитор погоды в Карпинске

АРХИВ ПОГОДЫ в Карпинске

Время (UTC), дата Ветер
(напр.,м/с)
 
Видим.   Явления Облачность Т
(С)
Тd
(С)
f
(%)
Тe
(С)
Тes
(С)
Комфортность P
(гПа)
Po
(гПа)
Тmin
(С)
Tmax
(С)
R
(мм)
R24
(мм)
S
(см)
15 9.09 СВ 1 20 км 8/0
[Ac trans Ci fib]
+11.6 +6.9 73 +12 +12 1028.6 1000.1 +15.4
18 9.09 СЗ 1 10 км 5/0
[Ac trans]
+8.1 +6.7 91 +7 +7 1028.7 999.8
21 9.09 З 1 10 км 3/0
[Ac trans]
+7.0 +5.8 92 +6 +6 1028.3 999.4
00 10.09 штиль 0 1000 м дымка 1/0
[Ac trans]
+5.3 +4.1 92 +4 +4 1028.0 998.9
03 10.09 З 2 10 км 5/0
[Ac trans Ci fib]
+5.9 +4.9 93 +3 +4 1027.5 998.5 +4.4
06 10.09 СЗ 4 20 км 9/0
[Ac lent Ci fib]
+13.6 +3.1 49 +12 +15 1026.2 998.0
09 10.09 З 5 20 км 9/0
[Ac trans Ci fib]
+16.5 +3.8 43 +16 +18 1025.5 997.5
12 10.09 СЗ 5
{11}
20 км 9/3 600 м
[Sc Ac lent Ci fib]
+16.2 +3.6 43 +15 +16 1024.9 996.9
15 10.09 З 1
{11}
20 км 9/4 600 м
[Sc Ac lent]
+13.5 +6.2 61 +14 +14 1025.4 997.2 +16.6
18 10.09 З 1 10 км 9/3 600 м
[Sc Ac trans]
+12.8 +6.1 64 +13 +13 1026.1 997.8
21 10.09 СЗ 2 10 км 9/0
[Ac trans]
+12.9 +6.7 66 +12 +12 1026.9 998.6
00 11.09 С 1 10 км 9/0
[Ac trans]
+10.9 +7.9 82 +11 +11 1028.7 1000.1
03 11.09 штиль 0 20 км 9/8 600 м
[Sc Ac lent]
+10.7 +7.5 81 +10 +10 1029.9 1001.3 +10.0
06 11.09 СЗ 1 20 км 5/3 600 м
[Cu med, cong Ci fib]
+15.0 +7.1 59 +16 +20 1029.7 1001.5
09 11.09 С 2 20 км 8/4 600 м
[Sc Ac trans Ci fib]
+17.8 +5.2 43 +18 +21 1028.3 1000.4
12 11.09 З 1 20 км 4/3 600 м
[Sc Ci fib]
+17.9 +8.3 53 +19 +21 1027.2 999.4
15 11.09 З 2 20 км 6/1 600 м
[Sc Ac trans Ci fib]
+14.6 +8.0 65 +14 +14 1026.1 998.0 +18.1
18 11.09 З 1 10 км 8/3 600 м
[Sc Ac trans]
+13.8 +7.7 67 +14 +14 1024.9 996.7
21 11.09 З 2
{11}
10 км 9/0
[Ac trans]
+14.3 +9.3 72 +14 +14 1023.3 995.3
00 12.09 З 2 10 км 3/0
[Ac lent]
+13.0 +9.8 81 +12 +12 1022.6 994.4
03 12.09 СЗ 3 20 км 4/3 600 м
[Sc Ac trans]
+14.3 +8.6 69 +13 +14 1022.4 994.4 +12.3
06 12.09 СЗ 4 20 км 8/8 600 м
[Sc]
+16.3 +7.8 57 +16 +16 1022.6 994.8
09 12.09 С 2 50 км 8/6 600 м
[Sc Ci fib]
+18.4 +7.3 48 +19 +21 1022.5 994.9
12 12.09 С 2 50 км 8/4 600 м
[Sc Ac trans Ci fib]
+18.2 +7.3 49 +19 +20 1022.7 995.0
15 12.09 ЮЗ 1 20 км 9/3 600 м
[Sc Ac trans Ci sp]
+14.0 +8.2 68 +14 +14 1022.7 994.6 +18.7
18 12.09 ЮЗ 1 10 км 5/0
[Ac trans Ci fib]
+12.7 +8.4 75 +13 +13 1022.1 993.9
21 12.09 З 1 10 км {дождь} 8/5 600 м
[Sc Ac trans Ci fib]
+11.6 +9.9 89 +11 +11 1020.5 992.3
00 13.09 З 1 10 км {дождь} 5/1 600 м
[Sc Ac trans]
+12.0 +10.3 89 +12 +12 1018.7 990.5
03 13.09 Ю 1 20 км 8/3 600 м
[Sc Ac trans Ci sp]
+12.9 +11.3 90 +13 +13 1017.7 989.7 +11.0 0.5
06 13.09 З 2 20 км 9/3 600 м
[Sc Ac trans]
+18.4 +11.8 65 +19 +21 1015.9 988.5
09 13.09 З 3 20 км 9/3 600 м
[Cu hum Ac trans Ci fib]
+19.9 +11.1 57 +22 +24 комфорт 1015.3 988.0
12 13.09 З 3
{11}
20 км 5/3 600 м
[Cu hum Ci fib]
+19.5 +9.8 53 +21 +22 комфорт 1014.9 987.6
15 13.09 З 2 20 км 8/0
[Ac trans]
+16.9 +9.3 61 +17 +17 1014.6 987.1 +20.4
18 13.09 ЮЗ 1 10 км 8/0
[Ac trans Ci fib]
+13.6 +9.6 77 +14 +14 1014.5 986.7
21 13.09 З 1 10 км 8/0
[Ac trans Ci fib]
+14.1 +8.6 69 +15 +15 1013.0 985.2
00 14.09 ЮЗ 1 10 км 8/0
[Ac trans Ci fib]
+12.6 +7.8 73 +13 +13 1012.0 984.2
03 14.09 З 1 20 км 8/0
[Ac trans Ci fib]
+11.8 +8.0 78 +12 +12 1012.1 984.2 +11.6
06 14.09 З 1 20 км 8/3 600 м
[Sc Ac trans]
+18.0 +10.0 59 +19 +21 1011.3 983.9
09 14.09 З 2 20 км 9/4 600 м
[Sc Ac trans]
+21.4 +8.6 44 +23 +24 комфорт 1009.9 982.9
12 14.09 Ю 2 20 км 9/3 600 м
[Sc Ac trans Ci fib]
+20.3 +8.9 48 +22 +23 комфорт 1009.2 982.1
15 14.09 Ю 2 10 км 8/3 600 м
[Sc Ac trans]
+17.8 +7.8 52 +18 +18 1009.3 981.9 +21.9
18 14.09 ЮЗ 2 10 км 8/0
[Ac trans Ci sp]
+16.3 +8.2 59 +16 +16 1008.7 981.3
21 14.09 Ю 1 10 км 8/0
[Ac trans Ci sp]
+14.0 +7.8 66 +14 +14 1007.9 980.2
00 15.09 ЮЗ 2 10 км 9/0
[Ac trans Ci sp]
+13.5 +7.8 68 +13 +13 1006.8 979.1
03 15.09 ЮЗ 2 20 км 9/0
[Ac trans]
+13.5 +7.6 67 +13 +13 1006.1 978.5 +12.2
06 15.09 ЮЗ 2 20 км 9/3 600 м
[Sc Ac trans]
+16.1 +8.7 61 +16 +18 1005.6 978.2
09 15.09 З 2 20 км 10/8 300 м
[Cb cap Ac trans]
+16.9 +7.0 52 +17 +18 1004.8 977.5
12 15.09 З 2 20 км в посл. час ливневой дождь 10/8 300 м
[Cb cap Ac trans]
+11.6 +7.3 75 +11 +11 1005.3 977.5
15 15.09 ЮЗ 1 10 км 9/8 300 м
[Cb cap Ac trans]
+10.4 +8.2 86 +10 +10 1004.7 976.8 +17.6 0.3
18 15.09 штиль 0 10 км 8/3 600 м
[Sc Ac trans]
+9.4 +7.0 85 +9 +9 1004.3 976.3
21 15.09 ЮЗ 1 10 км 5/1 600 м
[Sc Ac trans Ci fib]
+7.4 +5.4 87 +6 +6 1004.7 976.4
00 16.09 ЮЗ 1 10 км 8/0
[Ac trans Ci fib]
+7.0 +4.8 86 +6 +6 1004.7 976.4
03 16.09 штиль 0 20 км 9/0
[Ac trans Ci fib]
+5.9 +4.3 89 +5 +5 1004.7 976.3 +5.6
06 16.09 Ю 2 20 км 4/3 600 м
[Sc Ac trans]
+11.8 +4.5 61 +11 +14 1003.3 976.3
09 16.09 З 2 50 км 5/5 600 м
[Sc]
+13.3 +0.8 42 +13 +16 1002.1 974.5

 

Местоположение метеостанции Карпинск (Свердловская область, Россия): широта 59.75 долгота 60.00 высота над уровнем моря 235 м.

В архиве по умолчанию представлена погода в Карпинске за последнюю неделю. Архивные данные за месяц целиком и за предыдущие месяцы, начиная с января 2011 года, Вы можете получить, выбрав интересующий диапазон дат из раскрывающегося списка и нажав кнопку "Ввод!".


*Определитесь, кто Вы:
робот инопланетянин человек

Внимание! Время в таблицах - всемирное. Для получения местного времени необходимо прибавить поправку, которая равна 5 ч.

Смотрите также архив погоды в соседних городах и на ближайших метеорологических станциях:

Погода в Серове (Свердловская область, Россия) (34 км)
Погода в Кытлыме (Свердловская область, Россия) (52 км)
Погода в Североуральске (Свердловская область, Россия) (53 км)
Погода в Ивделе (Свердловская область, Россия) (106 км)
Погода в Верхотурье (Свердловская область, Россия) (107 км)
Погода в Качканаре (Свердловская область, Россия) (122 км)
Погода в Гарях (Свердловская область, Россия) (136 км)
Погода в Бисере (Пермский край, Россия) (152 км)
Погода в Кушве (Свердловская область, Россия) (160 км)
Погода в Губахе (Пермский край, Россия) (170 км)

Пояснения к столбцам:

Ветер - указаны скорость ветра в м/с - средняя за 10 мин, порывы в срок и между сроками (в фигурных скобках) и направление, откуда дует ветер: С - северный, СВ - северо-восточный, В - восточный, ЮВ - юго-восточный, Ю - южный, ЮЗ - юго-западный, З - западный, СЗ - северо-западный.
Видимость - горизонтальная дальность видимости в метрах или километрах. При видимости от 1 до 10 км при отсутствии осадков обычно наблюдается дымка, при ухудшении видимости до 1 км и менее - туман. В сухую погоду видимость может ухудшаться дымом, пылью или мглою.
Явления - указаны атмосферные явления, наблюдавшиеся в срок или в последний час перед сроком; фигурными скобками обозначены явления, наблюдавшиеся между сроками (за 1-3 часа до срока); квадратными скобками обозначены град или гололедные отложения с указанием их диаметра в мм.
Облачность - указаны через наклонную черту общая и нижняя облачность в баллах и высота нижней границы облаков в метрах; квадратными скобками обозначены формы облаков: Ci - перистые, Cs - перисто-слоистые, Cc - перисто-кучевые, Ac - высококучевые, As - высокослоистые, Sc - слоисто-кучевые, Ns - слоисто-дождевые, Cu - кучевые, Cb - кучево-дождевые. Подробнее классификацию облаков см. в Атласе облаков (PDF).
T - Температура воздуха - температура, измеренная на высоте 2 м над землей.
Td - Температура точки росы - температура, при понижении до которой содержащийся в воздухе водяной пар достигнет насыщения.
f - Относительная влажность воздуха - влажноcть воздуха, измеренная на высоте 2 м над землей.
Te - Эффективная температура - температура, которую ощущает одетый по сезону человек в тени. Характеристика душности погоды. При расчете учитывается влияние влажности воздуха и скорости ветра на теплоощущения человека.
Tes - Эффективная температура на солнце - температура, которую ощущает человек, с поправкой на солнечный нагрев. Характеристика знойности погоды. Зависит от высоты солнца над горизонтом, облачности и скорости ветра. Ночью, в пасмурную погоду, а также при ветре 12 м/с и более поправка равна нулю.
P - Атмосферное давление - приведенное к уровню моря атмосферное давление.
Po - Атмосферное давление - измеренное на уровне метеостанции атмосферное давление.
Tmin - Минимальная температура - минимум температуры воздуха на высоте 2 м над землей.
Tmax - Максимальная температура - максимум температуры воздуха на высоте 2 м над землей.
R - Количество осадков - Количество выпавших осадков за период времени, мм. При наведении курсора мыши на число - период времени, за который выпало указанное количество осадков.
R24 - Количество осадков - Количество выпавших осадков за 24 часа, мм.
S - Снежный покров - Высота снежного покрова, см. При наведении курсора мыши на число - состояние снежного покрова и степень покрытия местности в баллах.